This demonstration page uses our WeatherBlox Daily Observations layout. Learn more.

Left ArrowRight Arrow

Hourly Observations for May 5, 2017

Temp ( °F °C ) Dew Point ( °F °C ) Humidity (%) Winds ( mph kmh ) Pressure ( in mb ) Visibility ( mi km ) Precip ( " mm )
12:53 am 00:53 Clear 58 14.4 31 -0.6 36 36 WSW 6 9 30.04 1017 10 16 0.00 0.00
1:53 am 01:53 Clear 54 12.2 32 0 43 43 Calm 30.03 1017 10 16 0.00 0.00
2:53 am 02:53 Clear 52 11.1 32 0 47 47 ENE 7 11 30.03 1017 10 16 0.00 0.00
3:53 am 03:53 Clear 56 13.3 31 -0.6 39 39 E 8 13 30.03 1017 10 16 0.00 0.00
4:53 am 04:53 Clear 53 11.7 30 -1.1 41 41 E 7 11 30.03 1017 10 16 0.00 0.00
5:53 am 05:53 Clear 52 11.1 30 -1.1 43 43 E 8 13 30.04 1017 10 16 0.00 0.00
6:53 am 06:53 Clear 50 10 30 -1.1 46 46 E 7 11 30.04 1017 10 16 0.00 0.00
7:53 am 07:53 Sunny 57 13.9 30 -1.1 36 36 ESE 10 17 30.04 1017 9 14 0.00 0.00
8:53 am 08:53 Sunny 64 17.8 30 -1.1 28 28 SE 13 20 30.05 1018 10 16 0.00 0.00
9:53 am 09:53 Sunny 69 20.6 29 -1.7 22 22 SSE 15 24 30.05 1018 10 16 0.00 0.00
10:53 am 10:53 Sunny 73 22.8 29 -1.7 19 19 SE 8 13 30.04 1017 10 16 0.00 0.00
11:53 am 11:53 Sunny 76 24.4 27 -2.8 16 16 S 8 13 30.02 1017 10 16 0.00 0.00
12:53 pm 12:53 Sunny 79 26.1 28 -2.2 15 15 S 8 13 30.00 1016 10 16 0.00 0.00
1:53 pm 13:53 Sunny 82 27.8 28 -2.2 14 14 VRB 6 9 29.97 1015 10 16 0.00 0.00
2:53 pm 14:53 Sunny 84 28.9 28 -2.2 13 13 SSE 8 13 29.93 1014 10 16 0.00 0.00
3:53 pm 15:53 Sunny 85 29.4 28 -2.2 13 13 N 5 7 29.90 1012 10 16 0.00 0.00
4:53 pm 16:53 Sunny 87 30.6 28 -2.2 12 12 VRB 6 9 29.87 1011 10 16 0.00 0.00
5:53 pm 17:53 Sunny 87 30.6 28 -2.2 12 12 S 10 17 29.84 1010 10 16 0.00 0.00
6:53 pm 18:53 Sunny 86 30 28 -2.2 12 12 SSE 7 11 29.84 1010 10 16 0.00 0.00
7:53 pm 19:53 Sunny 84 28.9 28 -2.2 13 13 SSE 9 15 29.81 1010 10 16 0.00 0.00
8:53 pm 20:53 Clear 78 25.6 30 -1.1 17 17 ESE 9 15 29.82 1010 10 16 0.00 0.00
9:53 pm 21:53 Clear 75 23.9 31 -0.6 20 20 ESE 9 15 29.83 1010 10 16 0.00 0.00
10:53 pm 22:53 Clear 71 21.7 32 0 24 24 SE 10 17 29.83 1010 10 16 0.00 0.00
11:53 pm 23:53 Clear 72 22.2 32 0 23 23 SSE 14 22 29.83 1010 10 16 0.00 0.00

Powered by AerisWeather